Location: Gleizolles
(44.4833°N, 6.7667°E)
Time: 01:32:20
(UTC+00:00)

Vanguard 2 Rocket - Pass Details

Date: 22 June 2024
Orbit: 555 x 3302 km, 32.9° (Epoch: 24 July)

Event Time Altitude Azimuth Distance (km) Brightness Sun altitude
Rises 00:21:13 0° 210° (SSW) 6,558 - -21.3°
Reaches altitude 10° 00:25:57 10° 202° (SSW) 5,826 - -21.1°
Exits shadow 00:33:07 25° 183° (S) 4,968 10.0 -20.8°
Maximum altitude 00:41:42 34° 146° (SE) 4,560 10.1 -20.4°
Drops below altitude 10° 00:57:26 10° 92° (E) 5,864 11.2 -19.5°
Sets 01:02:08 0° 84° (E) 6,610 11.7 -19.2°
